Location: Newark
(44.4500°N, 0.0833°W)
Time: 18:26:18
(UTC+00:00)

Starlink Launch 2 leader - Visible Passes

Search period start: 08 December 2019 00:00
Search period end: 18 December 2019 00:00
Orbit: 279 x 281 km, 53.0° (Epoch: 13 November)

Date Brightness Start Highest point End Pass type
(mag) Time Alt. Az. Time Alt. Az. Time Alt. Az.
08 Dec 4.9 05:18:06 21° ENE 05:18:06 21° ENE 05:19:17 10° E visible
08 Dec 4.0 06:48:34 10° W 06:50:33 21° SW 06:52:32 10° S visible
09 Dec 4.7 05:20:11 25° ESE 05:20:11 25° ESE 05:21:26 10° ESE visible
09 Dec 4.8 06:51:25 10° WSW 06:52:19 11° SW 06:53:13 10° SSW visible
10 Dec 4.7 05:22:20 22° SE 05:22:20 22° SE 05:23:23 10° SE visible
11 Dec 5.1 05:24:34 14° SSE 05:24:34 14° SSE 05:25:03 10° SSE visible
